Regional Weather Roundup
Issued by NWS

Home | Current Version | Previous Version | Graphics & Text | Print | Product List | Glossary On
Versions: 1 2 3 4 5 6 7 8 9 10 11 12 13 14 15 16 17 18 19 20 21 22 23 24 25 26 27 28 29 30 31 32 33 34 35 36 37 38 39 40 41 42 43 44 45 46 47 48 49 50
000
ASUS43 KLSX 020259
RWRMO

WEATHER SUMMARY FOR MISSOURI
NATIONAL WEATHER SERVICE SPRINGFIELD MO
1000 PM CDT MON JUN 01 2015

NOTE: "FAIR" INDICATES FEW OR NO CLOUDS BELOW 12,000 FEET WITH NO
       SIGNIFICANT WEATHER AND/OR OBSTRUCTIONS TO VISIBILITY.
       CURRENT SKY AND/OR WEATHER CONDITIONS ARE NOT AVAILABLE FOR
       CHILLICOTHE AND FARMINGTON.

MOZ001>031-035>038-043-044-053-054-020400-
...NORTHERN AND WESTERN MISSOURI...

CITY           SKY/WX    TMP DP  RH WIND       PRES   REMARKS
KANSAS CTY INT CLOUDY    62  54  74 E10       30.12R
KANSAS C DTWN  CLOUDY    63  53  70 E9        30.11R
LEE`S SUMMIT   CLOUDY    60  53  77 E9        30.13R
ST JOSEPH      MOCLDY    63  54  72 SE9       30.12R
CHILLICOTHE      N/A     63  55  75 SE6       30.15R
KIRKSVILLE     MOCLDY    55  54  96 CALM      30.16R

$$
MOZ066>068-077>081-088>096-101>105-020400-
...SOUTHWEST MISSOURI...

CITY           SKY/WX    TMP DP  RH WIND       PRES   REMARKS
SPRINGFIELD    CLEAR     59  55  87 E8        30.11R
JOPLIN         CLEAR     61  57  87 E7        30.10R

$$
MOZ032>034-039>042-045>050-055>058-069>072-020400-
...CENTRAL MISSOURI...

CITY           SKY/WX    TMP DP  RH WIND       PRES   REMARKS
COLUMBIA       CLOUDY    60  55  83 E6        30.15R
JEFFERSON CITY CLOUDY    61  55  81 E9        30.14S
ROLLA          CLOUDY    57  56  96 NE6       30.13R FOG
SEDALIA        CLOUDY    61  54  77 E5        30.14S
OSAGE BEACH    CLOUDY    59  54  82 E3        30.14R

$$
MOZ051-052-059>065-020400-
...EAST CENTRAL MISSOURI...

CITY           SKY/WX    TMP DP  RH WIND       PRES   REMARKS
ST LOUIS INTL  CLOUDY    64  55  72 N5        30.15R
SPIRIT OF STL  CLOUDY    60  58  92 CALM      30.14R
ST CHARLES     CLOUDY    63  57  81 N3        30.14R

$$
MOZ072>076-082>087-097>100-106>115-020400-
...SOUTH CENTRAL AND SOUTHEAST MISSOURI...

CITY           SKY/WX    TMP DP  RH WIND       PRES   REMARKS
CAPE GIRARDEAU CLOUDY    61  58  90 N6        30.12R
FARMINGTON     CLOUDY    59  55  88 N3        30.17S
POPLAR BLUFF   CLOUDY    62  58  86 N8        30.11R
WEST PLAINS    PTCLDY    58  54  86 NE6       30.13S

$$



USA.gov is the U.S. government's official web portal to all federal, state and local government web resources and services.